AVA1046 SKCL-SECU

Flight info

Callsign AVA1046
Flight time 1h 18m
Altitude 34000
Route CLO1D CLO UP778 BOKAN UP533 QIT UT5 VUTNI
Aircraft A319/M-SDE3FGHIRWY/LB1

Departure

Time 2026-05-04 19:20
Airport Alfonso Bonilla Aragon International Airport (SKCL)

Arrival

Time 2026-05-04 20:39
Airport Mariscal Lamar Airport (SECU)
Time Latitude Longitude Altitude Speed Heading
2026-05-04 17:27 3.53708 -76.38603 3164 ft 0 kts 250°
2026-05-04 19:09 3.53712 -76.38592 3189 ft 3 kts 245°
2026-05-04 19:09 3.53721 -76.38575 3164 ft 3 kts 229°
2026-05-04 19:09 3.53736 -76.38562 3162 ft 3 kts 201°
2026-05-04 19:10 3.53753 -76.38559 3166 ft 3 kts 159°
2026-05-04 19:10 3.53761 -76.38562 3162 ft 0 kts 143°
2026-05-04 19:10 3.53760 -76.38562 3162 ft 0 kts 143°
2026-05-04 19:14 3.53734 -76.38542 3162 ft 8 kts 143°
2026-05-04 19:14 3.53690 -76.38511 3162 ft 8 kts 143°
2026-05-04 19:14 3.53640 -76.38474 3162 ft 10 kts 143°
2026-05-04 19:14 3.53573 -76.38461 3162 ft 11 kts 190°
2026-05-04 19:15 3.53494 -76.38475 3162 ft 12 kts 190°
2026-05-04 19:15 3.53400 -76.38491 3164 ft 15 kts 190°
2026-05-04 19:15 3.53293 -76.38510 3163 ft 16 kts 190°
2026-05-04 19:15 3.53195 -76.38527 3162 ft 13 kts 190°
2026-05-04 19:16 3.53104 -76.38543 3162 ft 14 kts 190°
2026-05-04 19:16 3.53013 -76.38558 3164 ft 9 kts 186°
2026-05-04 19:16 3.52956 -76.38532 3162 ft 8 kts 124°
2026-05-04 19:16 3.52952 -76.38510 3162 ft 0 kts 96°
2026-05-04 19:18 3.52951 -76.38494 3162 ft 6 kts 91°
2026-05-04 19:19 3.52980 -76.38452 3161 ft 9 kts 47°
2026-05-04 19:19 3.53005 -76.38399 3160 ft 7 kts 54°
2026-05-04 19:19 3.53028 -76.38390 3160 ft 0 kts
2026-05-04 19:19 3.53047 -76.38387 3160 ft 19 kts
2026-05-04 19:20 3.53429 -76.38321 3162 ft 89 kts
2026-05-04 19:20 3.54237 -76.38182 3166 ft 145 kts 10°
2026-05-04 19:20 3.55336 -76.37987 3471 ft 163 kts 11°
2026-05-04 19:20 3.56454 -76.37793 4103 ft 165 kts 11°
2026-05-04 19:21 3.57596 -76.37595 4625 ft 175 kts 10°
2026-05-04 19:21 3.58868 -76.37367 5032 ft 195 kts
2026-05-04 19:21 3.60244 -76.37121 5786 ft 207 kts
2026-05-04 19:21 3.61702 -76.36877 6492 ft 218 kts
2026-05-04 19:22 3.63218 -76.36616 7048 ft 224 kts
2026-05-04 19:22 3.64757 -76.36337 7743 ft 225 kts 10°
2026-05-04 19:22 3.66293 -76.36053 8320 ft 230 kts 10°
2026-05-04 19:22 3.67876 -76.35767 8938 ft 232 kts 10°
2026-05-04 19:23 3.69475 -76.35489 9555 ft 235 kts 11°
2026-05-04 19:23 3.71113 -76.35476 10078 ft 240 kts 347°
2026-05-04 19:23 3.72581 -76.36268 10598 ft 245 kts 317°
2026-05-04 19:23 3.73468 -76.37716 11120 ft 249 kts 285°
2026-05-04 19:24 3.73500 -76.39438 11625 ft 251 kts 254°
2026-05-04 19:24 3.72651 -76.40944 12136 ft 251 kts 222°
2026-05-04 19:24 3.71160 -76.41877 12460 ft 262 kts 194°
2026-05-04 19:24 3.69296 -76.42057 12718 ft 281 kts 174°
2026-05-04 19:25 3.67264 -76.41951 12970 ft 304 kts 174°
2026-05-04 19:25 3.65065 -76.41841 13203 ft 327 kts 175°
2026-05-04 19:25 3.62728 -76.41726 13488 ft 346 kts 175°
2026-05-04 19:25 3.60288 -76.41609 14165 ft 355 kts 175°
2026-05-04 19:26 3.57804 -76.41492 14900 ft 359 kts 175°
2026-05-04 19:26 3.55285 -76.41373 15563 ft 363 kts 175°
2026-05-04 19:26 3.52748 -76.41252 16178 ft 367 kts 175°
2026-05-04 19:26 3.50181 -76.41129 16790 ft 371 kts 175°
2026-05-04 19:27 3.47589 -76.41004 17393 ft 375 kts 175°
2026-05-04 19:27 3.44969 -76.40876 17987 ft 379 kts 175°
2026-05-04 19:27 3.42317 -76.40857 18528 ft 385 kts 182°
2026-05-04 19:27 3.39666 -76.41335 19038 ft 392 kts 194°
2026-05-04 19:28 3.37116 -76.42344 19564 ft 398 kts 206°
2026-05-04 19:28 3.34692 -76.43716 20093 ft 401 kts 208°
2026-05-04 19:28 3.32265 -76.45106 20626 ft 404 kts 208°
2026-05-04 19:28 3.29813 -76.46507 21149 ft 408 kts 208°
2026-05-04 19:29 3.27337 -76.47914 21670 ft 411 kts 208°
2026-05-04 19:29 3.24849 -76.49326 22198 ft 414 kts 208°
2026-05-04 19:29 3.22325 -76.50761 22705 ft 417 kts 208°
2026-05-04 19:29 3.19795 -76.52201 23197 ft 421 kts 207°
2026-05-04 19:30 3.17239 -76.53659 23666 ft 424 kts 208°
2026-05-04 19:30 3.14704 -76.55107 24068 ft 427 kts 208°
2026-05-04 19:30 3.12084 -76.56601 24482 ft 429 kts 207°
2026-05-04 19:30 3.09515 -76.58064 24895 ft 432 kts 208°
2026-05-04 19:31 3.06900 -76.59553 25291 ft 434 kts 207°
2026-05-04 19:31 3.04266 -76.61051 25697 ft 436 kts 207°
2026-05-04 19:31 3.01621 -76.62556 26086 ft 438 kts 207°
2026-05-04 19:31 2.98964 -76.64068 26472 ft 441 kts 207°
2026-05-04 19:32 2.96300 -76.65585 26850 ft 443 kts 207°
2026-05-04 19:32 2.93613 -76.67116 27239 ft 446 kts 208°
2026-05-04 19:32 2.90913 -76.68657 27633 ft 448 kts 207°
2026-05-04 19:32 2.88197 -76.70204 28025 ft 450 kts 207°
2026-05-04 19:33 2.85465 -76.71758 28406 ft 453 kts 207°
2026-05-04 19:33 2.82717 -76.73323 28785 ft 456 kts 207°
2026-05-04 19:33 2.79952 -76.74896 29160 ft 458 kts 207°
2026-05-04 19:33 2.77174 -76.76479 29515 ft 461 kts 207°
2026-05-04 19:34 2.74381 -76.78069 29886 ft 463 kts 207°
2026-05-04 19:34 2.71574 -76.79667 30215 ft 465 kts 207°
2026-05-04 19:34 2.68755 -76.81269 30525 ft 467 kts 207°
2026-05-04 19:34 2.65914 -76.82883 30822 ft 470 kts 207°
2026-05-04 19:35 2.63072 -76.84497 31111 ft 472 kts 207°
2026-05-04 19:35 2.60210 -76.86123 31400 ft 474 kts 207°
2026-05-04 19:35 2.58307 -76.87207 31594 ft 476 kts 207°
2026-05-04 19:35 2.55430 -76.88845 31969 ft 474 kts 208°
2026-05-04 19:36 2.52568 -76.90477 32393 ft 473 kts 208°
2026-05-04 19:36 2.49712 -76.92105 32837 ft 472 kts 208°
2026-05-04 19:36 2.46866 -76.93725 33278 ft 471 kts 208°
2026-05-04 19:36 2.44023 -76.95342 33719 ft 470 kts 208°
2026-05-04 19:37 2.41179 -76.96960 33983 ft 470 kts 208°
2026-05-04 19:37 2.35578 -77.00146 34038 ft 457 kts 207°
2026-05-04 19:38 2.30065 -77.03277 34038 ft 455 kts 208°
2026-05-04 19:38 2.24569 -77.06403 34037 ft 455 kts 208°
2026-05-04 19:39 2.19071 -77.09527 34026 ft 455 kts 207°
2026-05-04 19:39 2.13606 -77.12628 34026 ft 455 kts 207°
2026-05-04 19:40 2.08109 -77.15757 34018 ft 454 kts 207°
2026-05-04 19:40 2.02620 -77.18884 34014 ft 454 kts 207°
2026-05-04 19:41 1.97131 -77.22006 34005 ft 454 kts 207°
2026-05-04 19:41 1.91653 -77.25121 34000 ft 454 kts 207°
2026-05-04 19:42 1.86165 -77.28232 33998 ft 453 kts 207°
2026-05-04 19:42 1.80681 -77.31350 33994 ft 453 kts 207°
2026-05-04 19:43 1.75197 -77.34469 34005 ft 453 kts 207°
2026-05-04 19:43 1.69710 -77.37586 33996 ft 454 kts 207°
2026-05-04 19:44 1.64219 -77.40705 33997 ft 454 kts 207°
2026-05-04 19:44 1.58730 -77.43822 34028 ft 454 kts 207°
2026-05-04 19:45 1.53245 -77.46941 34022 ft 454 kts 207°
2026-05-04 19:45 1.47759 -77.50057 34046 ft 453 kts 207°
2026-05-04 19:46 1.42270 -77.53174 34033 ft 454 kts 207°
2026-05-04 19:46 1.36789 -77.56295 34069 ft 454 kts 207°
2026-05-04 19:47 1.31289 -77.59422 34084 ft 455 kts 207°
2026-05-04 19:47 1.25813 -77.62521 34078 ft 455 kts 207°
2026-05-04 19:48 1.20271 -77.65662 34101 ft 455 kts 207°
2026-05-04 19:48 1.14774 -77.68787 34191 ft 454 kts 207°
2026-05-04 19:49 1.09313 -77.71887 34250 ft 454 kts 207°
2026-05-04 19:49 1.03787 -77.75037 34302 ft 455 kts 207°
2026-05-04 19:50 0.98311 -77.78141 34333 ft 456 kts 207°
2026-05-04 19:50 0.92793 -77.81274 34114 ft 456 kts 207°
2026-05-04 19:51 0.87272 -77.84408 34137 ft 456 kts 207°
2026-05-04 19:51 0.81759 -77.87550 34144 ft 456 kts 208°
2026-05-04 19:52 0.76567 -77.91241 34145 ft 459 kts 214°
2026-05-04 19:52 0.71452 -77.95051 34169 ft 459 kts 214°
2026-05-04 19:53 0.66341 -77.98861 34165 ft 459 kts 214°
2026-05-04 19:53 0.61216 -78.02676 34164 ft 459 kts 214°
2026-05-04 19:54 0.56099 -78.06488 34191 ft 459 kts 214°
2026-05-04 19:54 0.50977 -78.10295 34191 ft 459 kts 214°
2026-05-04 19:55 0.45866 -78.14105 34188 ft 459 kts 214°
2026-05-04 19:55 0.40744 -78.17923 34218 ft 459 kts 214°
2026-05-04 19:56 0.35622 -78.21731 34211 ft 459 kts 214°
2026-05-04 19:56 0.30500 -78.25546 34198 ft 459 kts 214°
2026-05-04 19:57 0.25378 -78.29362 34227 ft 459 kts 214°
2026-05-04 19:57 0.20249 -78.33173 34229 ft 459 kts 214°
2026-05-04 19:58 0.15130 -78.36986 34223 ft 459 kts 214°
2026-05-04 19:58 0.10009 -78.40802 34220 ft 459 kts 214°
2026-05-04 19:59 0.04885 -78.44623 34224 ft 460 kts 214°
2026-05-04 19:59 -0.00210 -78.48408 34236 ft 459 kts 213°
2026-05-04 20:00 -0.05868 -78.51197 34239 ft 453 kts 194°
2026-05-04 20:00 -0.12043 -78.52311 34238 ft 451 kts 186°
2026-05-04 20:01 -0.18248 -78.53203 34239 ft 451 kts 186°
2026-05-04 20:01 -0.24471 -78.54110 34240 ft 451 kts 186°
2026-05-04 20:02 -0.30692 -78.55022 34256 ft 452 kts 186°
2026-05-04 20:02 -0.36909 -78.55929 34257 ft 452 kts 186°
2026-05-04 20:03 -0.43130 -78.56833 34262 ft 452 kts 186°
2026-05-04 20:03 -0.49350 -78.57736 34275 ft 452 kts 186°
2026-05-04 20:04 -0.55571 -78.58633 34276 ft 452 kts 186°
2026-05-04 20:04 -0.61793 -78.59532 34285 ft 452 kts 186°
2026-05-04 20:05 -0.68006 -78.60437 34283 ft 452 kts 186°
2026-05-04 20:05 -0.74181 -78.61333 34388 ft 452 kts 186°
2026-05-04 20:06 -0.80400 -78.62234 34401 ft 452 kts 186°
2026-05-04 20:06 -0.86622 -78.63141 34405 ft 452 kts 186°
2026-05-04 20:07 -0.92846 -78.64047 34405 ft 452 kts 186°
2026-05-04 20:07 -0.99069 -78.64952 34404 ft 452 kts 186°
2026-05-04 20:08 -1.05292 -78.65853 34375 ft 452 kts 186°
2026-05-04 20:08 -1.08397 -78.66303 34270 ft 452 kts 186°
2026-05-04 20:08 -1.11509 -78.66755 34271 ft 452 kts 186°
2026-05-04 20:09 -1.17728 -78.67656 34277 ft 451 kts 185°
2026-05-04 20:09 -1.23939 -78.68556 34255 ft 451 kts 185°
2026-05-04 20:09 -1.27046 -78.69006 33930 ft 451 kts 185°
2026-05-04 20:10 -1.30157 -78.69455 34239 ft 452 kts 185°
2026-05-04 20:10 -1.36393 -78.70358 34220 ft 453 kts 186°
2026-05-04 20:11 -1.42627 -78.71269 34307 ft 453 kts 186°
2026-05-04 20:11 -1.48863 -78.72176 34342 ft 453 kts 185°
2026-05-04 20:12 -1.55047 -78.73070 34375 ft 452 kts 185°
2026-05-04 20:12 -1.58159 -78.73519 34048 ft 451 kts 185°
2026-05-04 20:12 -1.61269 -78.73968 33388 ft 452 kts 185°
2026-05-04 20:12 -1.64380 -78.74420 32856 ft 450 kts 185°
2026-05-04 20:13 -1.67474 -78.74871 32379 ft 447 kts 185°
2026-05-04 20:13 -1.70537 -78.75316 31690 ft 443 kts 185°
2026-05-04 20:13 -1.73569 -78.75757 31231 ft 440 kts 185°
2026-05-04 20:13 -1.76579 -78.76194 30787 ft 437 kts 185°
2026-05-04 20:14 -1.79575 -78.76629 30362 ft 434 kts 185°
2026-05-04 20:14 -1.82551 -78.77060 29849 ft 431 kts 185°
2026-05-04 20:14 -1.85506 -78.77488 29365 ft 428 kts 186°
2026-05-04 20:14 -1.88441 -78.77914 28877 ft 425 kts 186°
2026-05-04 20:15 -1.91356 -78.78339 28397 ft 422 kts 186°
2026-05-04 20:15 -1.94251 -78.78760 27937 ft 419 kts 186°
2026-05-04 20:15 -1.97130 -78.79175 27500 ft 417 kts 186°
2026-05-04 20:15 -1.99991 -78.79588 27064 ft 414 kts 186°
2026-05-04 20:16 -2.02846 -78.79999 26516 ft 416 kts 186°
2026-05-04 20:16 -2.05716 -78.80414 25930 ft 418 kts 186°
2026-05-04 20:16 -2.08560 -78.80828 25377 ft 419 kts 186°
2026-05-04 20:16 -2.11453 -78.81251 24819 ft 421 kts 186°
2026-05-04 20:17 -2.14353 -78.81675 24276 ft 422 kts 186°
2026-05-04 20:17 -2.17253 -78.82098 23734 ft 422 kts 187°
2026-05-04 20:17 -2.20165 -78.82524 23089 ft 423 kts 187°
2026-05-04 20:17 -2.23083 -78.82948 22459 ft 424 kts 186°
2026-05-04 20:18 -2.26006 -78.83371 21863 ft 425 kts 186°
2026-05-04 20:18 -2.28931 -78.83790 21219 ft 424 kts 186°
2026-05-04 20:18 -2.31854 -78.84208 20626 ft 425 kts 186°
2026-05-04 20:18 -2.34773 -78.84628 20043 ft 423 kts 186°
2026-05-04 20:19 -2.37683 -78.85050 19470 ft 422 kts 186°
2026-05-04 20:19 -2.40586 -78.85474 18956 ft 421 kts 186°
2026-05-04 20:19 -2.43484 -78.85899 18393 ft 421 kts 186°
2026-05-04 20:19 -2.46376 -78.86323 17756 ft 420 kts 186°
2026-05-04 20:20 -2.49264 -78.86743 17131 ft 419 kts 186°
2026-05-04 20:20 -2.52140 -78.87155 16629 ft 416 kts 186°
2026-05-04 20:20 -2.54995 -78.87543 16252 ft 410 kts 185°
2026-05-04 20:20 -2.57799 -78.87911 15839 ft 404 kts 185°
2026-05-04 20:21 -2.60569 -78.88271 15447 ft 399 kts 185°
2026-05-04 20:21 -2.63302 -78.88635 15057 ft 394 kts 186°
2026-05-04 20:21 -2.68641 -78.89420 14317 ft 381 kts 186°
2026-05-04 20:22 -2.71211 -78.89819 14231 ft 366 kts 186°
2026-05-04 20:22 -2.73661 -78.90302 13917 ft 356 kts 194°
2026-05-04 20:22 -2.75941 -78.91202 13463 ft 349 kts 206°
2026-05-04 20:22 -2.77952 -78.92504 13044 ft 340 kts 217°
2026-05-04 20:23 -2.79631 -78.94128 12632 ft 333 kts 228°
2026-05-04 20:23 -2.81007 -78.95958 12224 ft 325 kts 232°
2026-05-04 20:23 -2.82311 -78.97740 11900 ft 318 kts 232°
2026-05-04 20:23 -2.83609 -78.99495 11509 ft 311 kts 232°
2026-05-04 20:24 -2.84885 -79.01216 11115 ft 305 kts 231°
2026-05-04 20:24 -2.86138 -79.02903 10724 ft 299 kts 232°
2026-05-04 20:24 -2.87445 -79.04465 10347 ft 282 kts 215°
2026-05-04 20:24 -2.89145 -79.05191 9954 ft 258 kts 180°
2026-05-04 20:25 -2.90781 -79.04795 9606 ft 235 kts 142°
2026-05-04 20:25 -2.91674 -79.03565 9351 ft 212 kts 102°
2026-05-04 20:25 -2.91636 -79.02173 9073 ft 193 kts 73°
2026-05-04 20:25 -2.91042 -79.01051 8839 ft 174 kts 51°
2026-05-04 20:26 -2.90299 -79.00165 8601 ft 159 kts 51°
2026-05-04 20:26 -2.89644 -78.99327 8405 ft 148 kts 51°
2026-05-04 20:26 -2.89044 -78.98558 8290 ft 129 kts 48°
2026-05-04 20:26 -2.88454 -78.97795 8516 ft 148 kts 50°
2026-05-04 20:27 -2.88020 -78.97244 8933 ft 155 kts 51°
2026-05-04 20:27 -2.87380 -78.96349 9704 ft 161 kts 60°
2026-05-04 20:27 -2.86859 -78.95343 10173 ft 168 kts 68°
2026-05-04 20:27 -2.86327 -78.93794 10584 ft 189 kts 78°
2026-05-04 20:28 -2.86119 -78.92436 10834 ft 208 kts 87°
2026-05-04 20:28 -2.86079 -78.91419 10935 ft 225 kts 88°
2026-05-04 20:28 -2.86021 -78.89804 11466 ft 236 kts 88°
2026-05-04 20:28 -2.85958 -78.88144 11869 ft 239 kts 88°
2026-05-04 20:29 -2.85896 -78.86492 11970 ft 237 kts 88°
2026-05-04 20:29 -2.85831 -78.84853 11991 ft 235 kts 88°
2026-05-04 20:29 -2.85765 -78.83204 11986 ft 237 kts 88°
2026-05-04 20:29 -2.85623 -78.81567 11983 ft 237 kts 78°
2026-05-04 20:30 -2.85085 -78.80017 11977 ft 237 kts 64°
2026-05-04 20:30 -2.84153 -78.78643 11972 ft 240 kts 49°
2026-05-04 20:30 -2.82888 -78.77545 11968 ft 242 kts 35°
2026-05-04 20:30 -2.81372 -78.76806 11962 ft 245 kts 19°
2026-05-04 20:31 -2.79693 -78.76491 11922 ft 248 kts
2026-05-04 20:31 -2.77975 -78.76641 11923 ft 251 kts 349°
2026-05-04 20:31 -2.76332 -78.77259 11922 ft 254 kts 333°
2026-05-04 20:31 -2.74905 -78.78311 11921 ft 257 kts 316°
2026-05-04 20:32 -2.73819 -78.79737 11920 ft 260 kts 299°
2026-05-04 20:32 -2.73175 -78.81429 11917 ft 262 kts 282°
2026-05-04 20:32 -2.73037 -78.83220 11919 ft 263 kts 264°
2026-05-04 20:32 -2.73419 -78.85027 11923 ft 262 kts 247°
2026-05-04 20:33 -2.74258 -78.86597 11919 ft 259 kts 232°
2026-05-04 20:33 -2.75312 -78.88063 11739 ft 259 kts 232°
2026-05-04 20:33 -2.76364 -78.89516 11506 ft 256 kts 232°
2026-05-04 20:33 -2.77406 -78.90954 11262 ft 254 kts 232°
2026-05-04 20:34 -2.78428 -78.92370 11076 ft 247 kts 231°
2026-05-04 20:34 -2.79417 -78.93743 11012 ft 240 kts 232°
2026-05-04 20:34 -2.80381 -78.95084 11019 ft 236 kts 233°
2026-05-04 20:34 -2.81345 -78.96406 10936 ft 234 kts 232°
2026-05-04 20:35 -2.82310 -78.97711 10872 ft 233 kts 231°
2026-05-04 20:35 -2.83280 -78.99021 10825 ft 233 kts 232°
2026-05-04 20:35 -2.84245 -79.00327 10778 ft 234 kts 231°
2026-05-04 20:35 -2.85198 -79.01618 10744 ft 226 kts 231°
2026-05-04 20:36 -2.86113 -79.02856 10633 ft 217 kts 230°
2026-05-04 20:36 -2.87006 -79.04056 10412 ft 213 kts 230°
2026-05-04 20:36 -2.88136 -79.04944 10145 ft 205 kts 198°
2026-05-04 20:36 -2.89497 -79.05089 9862 ft 193 kts 166°
2026-05-04 20:37 -2.90655 -79.04550 9605 ft 176 kts 138°
2026-05-04 20:37 -2.91347 -79.03623 9369 ft 160 kts 110°
2026-05-04 20:37 -2.91557 -79.02574 9125 ft 152 kts 88°
2026-05-04 20:37 -2.91333 -79.01571 8901 ft 145 kts 64°
2026-05-04 20:38 -2.90753 -79.00740 8754 ft 147 kts 50°
2026-05-04 20:38 -2.90113 -78.99922 8559 ft 152 kts 51°
2026-05-04 20:38 -2.89452 -78.99081 8335 ft 153 kts 50°
2026-05-04 20:38 -2.88883 -78.98361 8276 ft 88 kts 52°
2026-05-04 20:39 -2.88713 -78.98159 8274 ft 9 kts 31°
2026-05-04 20:39 -2.88714 -78.98143 8274 ft 3 kts 221°
2026-05-04 20:39 -2.88748 -78.98186 8276 ft 12 kts 232°
2026-05-04 20:39 -2.88812 -78.98269 8274 ft 18 kts 232°
2026-05-04 20:40 -2.88901 -78.98382 8277 ft 23 kts 232°
2026-05-04 20:40 -2.88994 -78.98501 8281 ft 15 kts 232°
2026-05-04 20:40 -2.88985 -78.98554 8283 ft 6 kts 324°
2026-05-04 20:40 -2.88961 -78.98581 8284 ft 3 kts 258°
2026-05-04 20:41 -2.88982 -78.98601 8285 ft 5 kts 225°
2026-05-04 20:41 -2.89007 -78.98633 8290 ft 6 kts 231°
2026-05-04 20:41 -2.89035 -78.98669 8289 ft 6 kts 237°
2026-05-04 20:41 -2.89024 -78.98687 8289 ft 5 kts 320°
2026-05-04 20:42 -2.89010 -78.98698 8290 ft 0 kts 322°
2026-05-04 20:42 -2.89005 -78.98701 8289 ft 0 kts 323°